IZ1UQG-2 Weather Reports


Display with metric or nautical units.
time (UTC)temp
F
wind
direction
speed
MPH
gust
MPH
rain 1hr
in
rain 24hr
in
rain mn
in
humidity
%
barometer
mb
20260506175007 58 63 3.0 8.0 0.00 1.43 1.39 72 1006.7
20260506174907 58 63 4.0 8.0 0.00 1.47 1.39 72 1006.7
20260506174607 58 50 4.0 8.0 0.00 1.47 1.39 72 1006.7
20260506174408 58 37 3.0 8.0 0.00 1.47 1.39 71 1006.6
20260506174316 58 29 3.0 6.0 0.00 1.47 1.39 71 1006.6
20260506174207 58 22 3.0 6.0 0.00 1.47 1.39 72 1006.5
20260506174107 58 17 3.0 6.0 0.00 1.47 1.39 72 1006.4
20260506174007 58 15 3.0 6.0 0.00 1.47 1.39 73 1006.4
20260506173907 58 8 3.0 6.0 0.00 1.47 1.39 73 1006.4
20260506173807 58 357 3.0 6.0 0.00 1.47 1.39 73 1006.3
20260506173707 58 351 4.0 6.0 0.00 1.47 1.39 73 1006.3
20260506173608 58 344 4.0 7.0 0.00 1.47 1.39 73 1006.2
20260506173316 58 334 5.0 7.0 0.00 1.47 1.39 73 1006.3
20260506173107 58 330 5.0 7.0 0.00 1.47 1.39 73 1006.2
20260506173007 58 328 5.0 7.0 0.00 1.47 1.39 73 1006.3
20260506172907 58 328 5.0 9.0 0.00 1.47 1.39 73 1006.4
20260506172707 58 328 6.0 9.0 0.00 1.47 1.39 73 1006.3
20260506172607 58 328 6.0 9.0 0.00 1.47 1.39 73 1006.3
20260506172508 58 329 6.0 9.0 0.00 1.47 1.39 73 1006.2
20260506172407 58 331 5.0 9.0 0.00 1.47 1.39 74 1006.3
20260506172313 58 330 6.0 9.0 0.00 1.47 1.39 73 1006.3
20260506172207 58 329 6.0 9.0 0.00 1.47 1.39 74 1006.3
20260506172107 58 329 6.0 9.0 0.00 1.47 1.39 73 1006.2
20260506172007 58 328 6.0 9.0 0.00 1.47 1.39 73 1006.3
20260506171807 58 328 5.0 8.0 0.00 1.47 1.39 73 1006.4
20260506171707 58 329 5.0 8.0 0.00 1.47 1.39 74 1006.4
20260506171507 58 329 5.0 8.0 0.00 1.47 1.39 74 1006.5
20260506171407 58 328 5.0 8.0 0.00 1.47 1.39 73 1006.4
20260506171107 58 329 3.0 8.0 0.00 1.47 1.39 73 1006.5
20260506171007 58 332 3.0 8.0 0.00 1.47 1.39 73 1006.6
20260506170907 58 334 2.0 6.0 0.00 1.47 1.39 72 1006.5
20260506170807 58 335 2.0 6.0 0.00 1.47 1.39 72 1006.5
20260506170707 58 337 2.0 5.0 0.00 1.47 1.39 72 1006.5
20260506170614 58 340 1.0 5.0 0.00 1.47 1.39 72 1006.4
20260506170507 58 343 1.0 5.0 0.00 1.47 1.39 72 1006.5
20260506170407 58 352 1.0 4.0 0.00 1.47 1.39 72 1006.4
20260506170307 58 10 1.0 4.0 0.00 1.47 1.39 71 1006.4
20260506170207 58 111 1.0 3.0 0.00 1.47 1.39 72 1006.4
20260506170107 58 119 0.0 2.0 0.00 1.47 1.39 71 1006.4
20260506170008 58 125 0.0 2.0 0.00 1.47 1.39 71 1006.4
20260506165907 58 134 0.0 2.0 0.00 1.47 1.39 71 1006.4
20260506165807 58 142 0.0 2.0 0.00 1.47 1.39 71 1006.3
20260506165613 58 143 0.0 2.0 0.00 1.47 1.39 72 1006.3
20260506165508 58 139 1.0 2.0 0.00 1.47 1.39 73 1006.4
20260506165406 58 146 0.0 2.0 0.00 1.47 1.39 73 1006.2
20260506165307 58 162 1.0 2.0 0.00 1.47 1.39 73 1006.3
20260506165207 58 277 0.0 2.0 0.00 1.47 1.39 74 1006.2
20260506165107 58 301 1.0 2.0 0.00 1.47 1.39 74 1006.2
20260506164807 58 332 1.0 3.0 0.00 1.47 1.39 72 1006.1
20260506164612 58 333 1.0 5.0 0.00 1.47 1.39 71 1006.0
20260506164407 58 335 2.0 6.0 0.00 1.47 1.39 70 1006.0
20260506164207 58 336 3.0 7.0 0.00 1.47 1.39 70 1006.0
20260506164107 58 338 4.0 7.0 0.00 1.47 1.39 70 1006.0
20260506164007 58 338 4.0 7.0 0.00 1.47 1.39 70 1006.0
20260506163907 58 339 4.0 9.0 0.00 1.47 1.39 70 1006.1
20260506163807 58 344 4.0 9.0 0.00 1.47 1.39 70 1006.2
20260506163614 58 3 5.0 9.0 0.00 1.47 1.39 70 1006.2
20260506163507 58 19 5.0 11.0 0.00 1.47 1.39 70 1006.2
20260506163407 58 37 5.0 11.0 0.00 1.47 1.39 70 1006.1
20260506163307 59 51 6.0 12.0 0.00 1.47 1.39 69 1006.1
20260506163207 59 56 6.0 14.0 0.00 1.47 1.39 68 1006.2
20260506163007 59 64 7.0 14.0 0.00 1.47 1.39 67 1006.1
20260506162907 59 67 6.0 14.0 0.00 1.47 1.39 67 1006.2
20260506162807 59 67 7.0 14.0 0.00 1.47 1.39 66 1006.2
20260506162707 59 65 7.0 14.0 0.00 1.47 1.39 65 1006.2
20260506162613 59 62 7.0 14.0 0.00 1.47 1.39 65 1006.2
20260506162508 59 61 7.0 14.0 0.00 1.47 1.39 65 1006.0
20260506162407 59 57 6.0 14.0 0.00 1.47 1.39 65 1006.0
20260506162307 59 56 6.0 14.0 0.00 1.47 1.39 66 1006.0
20260506161907 59 65 6.0 12.0 0.00 1.47 1.39 66 1005.8
20260506161807 59 68 6.0 12.0 0.00 1.47 1.39 66 1005.8
20260506161707 59 71 6.0 12.0 0.00 1.47 1.39 67 1005.7
20260506161613 59 73 6.0 13.0 0.00 1.47 1.39 67 1005.7
20260506161507 59 74 6.0 13.0 0.00 1.47 1.39 68 1005.6
20260506161407 58 75 7.0 13.0 0.00 1.47 1.39 68 1005.7
20260506161307 58 73 7.0 13.0 0.00 1.47 1.39 68 1005.7
20260506161207 58 71 7.0 13.0 0.00 1.47 1.39 67 1005.6
20260506161107 58 72 8.0 13.0 0.00 1.47 1.39 67 1005.6
20260506160907 58 76 8.0 13.0 0.00 1.47 1.39 67 1005.6
20260506160807 58 75 8.0 13.0 0.00 1.47 1.39 67 1005.6
20260506160607 58 65 5.0 6.0 0.00 1.47 1.39 69 1005.6
20260506160507 58 76 5.0 6.0 0.00 1.47 1.39 69 1005.7
20260506160307 58 97 6.0 6.0 0.00 1.47 1.39 69 1005.6
20260506073207 53 311 2.0 4.0 0.10 0.26 0.10 93 1006.4
20260506073107 53 306 2.0 4.0 0.09 0.25 0.09 93 1006.3
20260506073008 53 301 2.0 4.0 0.09 0.24 0.09 93 1006.4
20260506072907 53 299 2.0 4.0 0.00 0.24 0.08 93 1006.3
20260506072809 53 300 2.0 4.0 0.00 0.23 0.07 93 1006.4
20260506072707 53 300 2.0 4.0 0.00 0.23 0.07 93 1006.5
20260506072607 53 301 3.0 4.0 0.00 0.22 0.06 93 1006.4
20260506072519 53 307 2.0 4.0 0.00 0.20 0.05 93 1006.5
20260506072406 53 316 2.0 4.0 0.00 0.24 0.04 93 1006.5
20260506072308 53 318 2.0 4.0 0.00 0.24 0.04 93 1006.6
20260506071907 53 327 3.0 5.0 0.00 0.24 0.04 93 1006.7
20260506071809 53 331 3.0 5.0 0.00 0.23 0.03 93 1006.7
20260506071707 53 334 3.0 6.0 0.00 0.23 0.03 93 1006.7
20260506071606 53 335 3.0 6.0 0.00 0.23 0.03 93 1006.7
20260506071518 53 336 3.0 6.0 0.00 0.23 0.03 93 1006.7
20260506071407 53 337 3.0 6.0 0.00 0.27 0.03 93 1006.8
20260506071307 53 338 3.0 6.0 0.00 0.26 0.02 93 1006.7
20260506071207 53 340 3.0 6.0 0.00 0.26 0.02 93 1006.7
20260506071107 53 342 3.0 6.0 0.00 0.26 0.02 93 1006.7
20260506070906 53 340 2.0 6.0 0.00 0.26 0.02 93 1006.7
20260506070808 53 338 2.0 6.0 0.00 0.26 0.02 93 1006.7
20260506070607 53 332 1.0 5.0 0.00 0.25 0.02 93 1006.8
20260506070517 53 320 1.0 4.0 0.00 0.25 0.02 93 1006.8
20260506070406 53 240 1.0 4.0 0.00 0.25 0.02 93 1006.8
20260506070306 53 234 1.0 4.0 0.00 0.24 0.01 93 1006.8
20260506070207 53 229 1.0 4.0 0.00 0.24 0.01 93 1006.7
20260506070107 53 236 1.0 4.0 0.00 0.24 0.01 93 1006.8
20260506062405 53 274 2.0 6.0 0.23 0.70 0.33 93 1006.7
20260506062305 53 264 2.0 5.0 0.23 0.69 0.32 93 1006.6
20260506062205 53 262 1.0 4.0 0.23 0.70 0.32 93 1006.8
20260506062004 53 286 1.0 3.0 0.21 0.68 0.30 93 1006.7
20260506061910 53 299 1.0 5.0 0.20 0.68 0.29 93 1006.6
20260506061804 53 310 2.0 5.0 0.21 0.68 0.28 93 1006.6
20260506061704 53 319 2.0 5.0 0.20 0.68 0.28 93 1006.6
20260506061403 53 315 2.0 5.0 0.20 0.67 0.26 93 1006.6
20260506061303 53 313 2.0 5.0 0.20 0.66 0.25 93 1006.6
20260506061204 53 310 2.0 5.0 0.20 0.67 0.25 93 1006.6
20260506061104 53 309 2.0 5.0 0.22 0.67 0.25 93 1006.6
20260506061004 53 310 2.0 5.0 0.21 0.66 0.24 93 1006.5
20260506060903 53 312 2.0 5.0 0.21 0.65 0.24 93 1006.5
20260506060805 53 315 2.0 5.0 0.21 0.65 0.24 93 1006.5
20260506060703 53 318 2.0 4.0 0.20 0.65 0.23 93 1006.6
20260506060605 53 324 2.0 4.0 0.20 0.65 0.23 93 1006.6
20260506060405 53 325 2.0 4.0 0.20 0.65 0.22 93 1006.5
20260506060311 53 333 2.0 4.0 0.20 0.65 0.22 93 1006.6
20260506060204 53 338 2.0 4.0 0.20 0.66 0.22 93 1006.6
20260506060104 53 339 2.0 4.0 0.19 0.65 0.21 93 1006.5
20260506051404 53 345 2.0 3.0 0.06 0.59 0.06 93 1006.9
20260506051304 53 346 2.0 3.0 0.05 0.58 0.05 93 1007.0
20260506051203 53 347 2.0 3.0 0.03 0.57 0.03 93 1006.9
20260506051004 53 346 1.0 3.0 0.03 0.57 0.03 93 1007.0
20260506050904 53 345 1.0 3.0 0.02 0.57 0.02 93 1007.1
20260506050514 53 349 1.0 2.0 0.02 0.57 0.02 93 1007.0
20260506050304 53 350 0.0 2.0 0.02 0.57 0.02 93 1007.1
20260506045104 53 336 2.0 3.0 0.02 0.60 0.02 92 1007.2
20260506045004 53 334 2.0 3.0 0.02 0.60 0.02 92 1007.1
20260506044904 53 332 2.0 3.0 0.02 0.60 0.02 93 1007.1
20260506044804 53 330 2.0 3.0 0.02 0.60 0.02 93 1007.2
20260506044703 53 330 2.0 3.0 0.02 0.60 0.02 92 1007.2
20260506044604 53 327 1.0 3.0 0.02 0.60 0.02 92 1007.2
20260506044504 53 328 1.0 3.0 0.02 0.60 0.02 92 1007.2
20260506044403 53 329 1.0 3.0 0.02 0.60 0.02 93 1007.2
20260506044204 53 328 1.0 3.0 0.01 0.59 0.01 93 1007.3
20260506044104 53 330 1.0 3.0 0.01 0.59 0.01 93 1007.3
20260506044004 53 329 2.0 3.0 0.00 0.59 0.00 92 1007.3
20260506043804 53 328 2.0 3.0 0.00 0.59 0.00 92 1007.3
20260506043704 53 328 2.0 3.0 0.00 0.59 0.00 93 1007.2
20260506043504 53 325 2.0 3.0 0.00 0.59 0.00 92 1007.3
20260506043404 53 323 2.0 3.0 0.00 0.59 0.00 92 1007.3
20260506043303 53 321 2.0 3.0 0.00 0.60 0.00 92 1007.4
20260506043104 53 314 2.0 3.0 0.00 0.60 0.00 92 1007.4
20260506043004 53 311 2.0 3.0 0.00 0.60 0.00 93 1007.4
20260506042904 53 312 2.0 3.0 0.00 0.60 0.00 93 1007.4
20260506042803 53 311 2.0 3.0 0.00 0.60 0.00 92 1007.4
20260506042704 53 310 2.0 3.0 0.00 0.60 0.00 92 1007.4
20260506042504 53 315 2.0 3.0 0.00 0.60 0.00 93 1007.4
20260506042404 53 319 2.0 3.0 0.00 0.60 0.00 92 1007.4
20260506042305 53 322 2.0 3.0 0.00 0.60 0.00 92 1007.4
20260506042204 53 326 2.0 4.0 0.00 0.60 0.00 92 1007.5
20260506042104 53 329 2.0 4.0 0.00 0.60 0.00 92 1007.4
20260506042004 53 332 2.0 4.0 0.00 0.60 0.00 92 1007.5
20260506041904 53 335 3.0 4.0 0.00 0.61 0.00 92 1007.5
20260506041804 53 339 3.0 4.0 0.00 0.61 0.00 92 1007.5
20260506041705 53 343 3.0 4.0 0.00 0.61 0.00 92 1007.5
20260506041603 53 345 3.0 4.0 0.00 0.61 0.00 92 1007.6
20260506041504 53 346 3.0 4.0 0.00 0.61 0.00 92 1007.5
20260506041403 53 346 3.0 4.0 0.00 0.61 0.00 92 1007.7
20260506041303 53 346 3.0 4.0 0.00 0.61 0.00 92 1007.6
20260506041205 53 347 3.0 4.0 0.00 0.61 0.00 92 1007.6
20260506041103 53 349 3.0 4.0 0.00 0.61 0.00 92 1007.6
20260506041004 53 350 3.0 4.0 0.00 0.61 0.00 92 1007.6
20260506040905 53 350 2.0 4.0 0.00 0.61 0.00 92 1007.5
20260506040804 53 349 2.0 4.0 0.00 0.61 0.00 92 1007.6
20260506040703 53 349 2.0 4.0 0.00 0.61 0.00 92 1007.6
20260506040504 53 349 2.0 4.0 0.00 0.61 0.00 92 1007.7
20260506040305 53 351 2.0 3.0 0.00 0.61 0.00 92 1007.6
20260506040204 53 354 2.0 3.0 0.00 0.61 0.00 92 1007.6
20260506040104 53 354 2.0 3.0 0.00 0.61 0.00 92 1007.6
20260506040004 53 355 2.0 3.0 0.00 0.61 0.00 92 1007.6
20260506035905 53 356 2.0 3.0 0.00 0.61 0.00 92 1007.6
20260506035804 53 357 2.0 3.0 0.00 0.61 0.00 92 1007.7
20260506035604 53 357 2.0 4.0 0.00 0.61 0.00 92 1007.7
20260506035504 53 355 2.0 4.0 0.00 0.61 0.00 92 1007.7
20260506035404 53 355 2.0 4.0 0.00 0.61 0.00 92 1007.6
20260506035306 53 352 2.0 4.0 0.00 0.61 0.00 92 1007.7
20260506035205 53 349 2.0 4.0 0.00 0.61 0.00 92 1007.7
20260506035004 53 347 3.0 4.0 0.00 0.61 0.00 92 1007.7
20260506034904 53 347 3.0 4.0 0.00 0.61 0.00 92 1007.7
20260506034804 53 345 3.0 4.0 0.00 0.61 0.00 92 1007.7
20260506034704 53 343 3.0 4.0 0.00 0.61 0.00 92 1007.7
20260506034604 53 341 3.0 4.0 0.00 0.61 0.00 92 1007.7
20260506034504 53 341 3.0 4.0 0.00 0.61 0.00 92 1007.7
20260506034405 53 338 2.0 4.0 0.00 0.61 0.00 92 1007.7
20260506034304 53 337 2.0 4.0 0.00 0.61 0.00 92 1007.8
20260506034203 53 334 2.0 4.0 0.00 0.61 0.00 92 1007.7
20260506034104 53 332 2.0 4.0 0.00 0.61 0.00 92 1007.8
20260506034004 53 330 2.0 4.0 0.00 0.62 0.00 92 1007.8
20260506033904 53 326 2.0 4.0 0.00 0.62 0.00 92 1007.7
20260506033704 53 327 2.0 3.0 0.00 0.62 0.00 92 1007.9
20260506033604 53 326 2.0 3.0 0.00 0.62 0.00 92 1007.8
20260506033504 53 326 2.0 3.0 0.00 0.62 0.00 92 1007.7
20260506033404 53 327 2.0 4.0 0.00 0.62 0.00 92 1007.7
20260506033304 53 327 2.0 4.0 0.00 0.62 0.00 92 1007.8
20260506033104 53 328 2.0 4.0 0.00 0.62 0.00 92 1007.8
20260506032904 53 327 2.0 4.0 0.00 0.62 0.00 92 1007.8
20260506032804 53 326 2.0 4.0 0.00 0.62 0.00 92 1007.8
20260506032604 53 325 2.0 4.0 0.00 0.62 0.00 92 1007.9
20260506032504 53 325 2.0 4.0 0.00 0.62 0.00 92 1007.9
20260506032403 53 323 2.0 4.0 0.00 0.62 0.00 92 1007.8
20260506032306 53 322 1.0 3.0 0.00 0.62 0.00 92 1007.9
20260506032204 53 323 1.0 3.0 0.00 0.62 0.00 92 1007.9
20260506032004 53 323 1.0 3.0 0.00 0.62 0.00 92 1007.9
20260506031905 53 323 1.0 3.0 0.00 0.62 0.00 92 1008.0
20260506031803 53 323 1.0 3.0 0.00 0.63 0.00 92 1007.9
20260506031704 53 323 1.0 3.0 0.00 0.63 0.00 92 1008.0
20260506031604 53 323 1.0 3.0 0.00 0.63 0.00 92 1008.0
20260506031404 53 323 2.0 3.0 0.00 0.63 0.00 92 1008.1
20260506031305 53 323 2.0 3.0 0.00 0.63 0.00 92 1008.1
20260506031204 53 323 2.0 3.0 0.00 0.63 0.00 92 1008.2
20260506031104 53 323 2.0 3.0 0.00 0.63 0.00 92 1008.1
20260506031004 53 323 1.0 3.0 0.00 0.63 0.00 92 1008.2
20260506030803 53 323 1.0 3.0 0.00 0.63 0.00 92 1008.2
20260506030707 53 323 1.0 3.0 0.00 0.63 0.00 92 1008.2
20260506030604 53 323 1.0 2.0 0.00 0.63 0.00 92 1008.3
20260506030504 53 323 1.0 2.0 0.00 0.63 0.00 92 1008.3
20260506030404 53 323 1.0 2.0 0.00 0.63 0.00 92 1008.4
20260506030303 53 323 1.0 2.0 0.00 0.63 0.00 92 1008.3
20260506030203 53 323 1.0 3.0 0.00 0.63 0.00 92 1008.3
20260506030103 53 323 1.0 3.0 0.00 0.63 0.00 92 1008.2
20260506030004 53 323 1.0 3.0 0.00 0.63 0.00 92 1008.3
20260506025907 53 323 1.0 3.0 0.00 0.63 0.00 92 1008.3
20260506025704 53 323 2.0 3.0 0.00 0.63 0.00 92 1008.3
20260506025504 53 323 2.0 3.0 0.00 0.63 0.00 92 1008.5
20260506025404 53 323 2.0 3.0 0.00 0.63 0.00 92 1008.5
20260506025305 53 323 2.0 4.0 0.00 0.63 0.00 92 1008.5
20260506025204 53 323 2.0 4.0 0.00 0.63 0.00 92 1008.5
20260506025104 53 324 2.0 4.0 0.00 0.63 0.00 92 1008.5
20260506025004 53 325 2.0 4.0 0.00 0.63 0.00 92 1008.6
20260506024904 53 325 2.0 4.0 0.00 0.63 0.00 92 1008.6
20260506024804 53 326 2.0 4.0 0.00 0.63 0.00 92 1008.6
20260506024710 53 329 2.0 4.0 0.00 0.63 0.00 92 1008.6
20260506024504 53 334 2.0 4.0 0.00 0.63 0.00 92 1008.6
20260506024416 53 336 2.0 4.0 0.00 0.63 0.00 92 1008.6
20260506024304 53 338 2.0 4.0 0.00 0.63 0.00 92 1008.6
20260506024204 53 339 2.0 4.0 0.00 0.63 0.00 92 1008.6
20260506024004 53 344 2.0 4.0 0.00 0.63 0.00 92 1008.6
20260506023904 53 347 2.0 4.0 0.00 0.63 0.00 92 1008.6
20260506023803 53 349 2.0 4.0 0.00 0.63 0.00 92 1008.7
20260506023704 53 349 1.0 4.0 0.00 0.63 0.00 92 1008.7
20260506023603 53 348 1.0 4.0 0.00 0.63 0.00 92 1008.6
20260506023504 53 349 1.0 4.0 0.00 0.63 0.00 92 1008.6
20260506023404 53 351 1.0 4.0 0.00 0.63 0.00 92 1008.6
20260506023304 53 352 1.0 4.0 0.00 0.63 0.00 92 1008.5
20260506023203 53 353 1.0 4.0 0.00 0.63 0.00 92 1008.5
20260506023103 53 345 0.0 2.0 0.00 0.63 0.00 92 1008.6
20260506023004 53 330 0.0 1.0 0.00 0.63 0.00 92 1008.6
20260506022905 53 330 0.0 1.0 0.00 0.63 0.00 92 1008.6
20260506022810 53 330 0.0 1.0 0.00 0.63 0.00 92 1008.7
20260506022604 53 327 0.0 4.0 0.00 0.63 0.00 92 1008.8
20260506022516 53 321 1.0 4.0 0.00 0.63 0.00 92 1008.8
20260506022403 53 320 1.0 4.0 0.00 0.63 0.00 92 1008.8
20260506022306 53 325 1.0 4.0 0.00 0.63 0.00 92 1008.8
20260506022203 53 326 2.0 4.0 0.00 0.63 0.00 92 1008.8
20260506022104 53 329 2.0 4.0 0.00 0.63 0.00 92 1008.8
20260506022004 53 332 2.0 4.0 0.00 0.63 0.00 92 1008.7
20260506021904 53 332 2.0 4.0 0.00 0.63 0.00 92 1008.9
20260506021705 53 333 2.0 4.0 0.00 0.63 0.00 92 1008.7
20260506021604 53 335 2.0 4.0 0.00 0.63 0.00 92 1008.8
20260506021504 53 339 1.0 4.0 0.00 0.63 0.00 91 1008.8
20260506021404 53 345 1.0 4.0 0.00 0.63 0.00 92 1008.8
20260506021304 53 344 1.0 3.0 0.00 0.63 0.00 92 1008.8
20260506021206 53 353 0.0 3.0 0.00 0.63 0.00 92 1008.8
20260506020912 53 357 0.0 1.0 0.00 0.63 0.00 92 1008.8
20260506020803 53 357 0.0 2.0 0.00 0.63 0.00 92 1008.9
20260506020704 53 357 0.0 2.0 0.00 0.63 0.00 91 1008.9
20260506020615 53 358 1.0 2.0 0.00 0.63 0.00 91 1008.9
20260506020504 53 355 1.0 2.0 0.00 0.63 0.00 91 1008.9
20260506020404 53 347 1.0 4.0 0.00 0.63 0.00 92 1008.9
20260506020303 53 342 1.0 4.0 0.00 0.63 0.00 92 1009.0
20260506020203 53 340 2.0 5.0 0.00 0.63 0.00 92 1009.0
20260506020004 53 337 2.0 5.0 0.00 0.63 0.00 92 1009.0
20260506015904 53 336 2.0 5.0 0.00 0.63 0.00 92 1009.0
20260506015803 53 335 2.0 5.0 0.00 0.63 0.00 92 1009.0
20260506015704 53 333 2.0 5.0 0.00 0.63 0.00 91 1008.9
20260506015604 53 331 2.0 5.0 0.00 0.63 0.00 91 1009.0
20260506015403 53 332 2.0 5.0 0.00 0.63 0.00 91 1008.9
20260506015306 53 332 1.0 5.0 0.00 0.63 0.00 91 1008.9
20260506015204 53 333 1.0 3.0 0.00 0.63 0.00 91 1008.9
20260506014904 54 333 1.0 2.0 0.00 0.63 0.00 91 1009.0
20260506014804 54 331 1.0 2.0 0.00 0.63 0.00 91 1009.0
20260506014716 54 330 1.0 2.0 0.00 0.63 0.00 91 1009.0
20260506014604 54 329 1.0 2.0 0.00 0.63 0.00 91 1009.0
20260506014504 54 326 1.0 2.0 0.00 0.63 0.00 92 1009.0
20260506014304 54 323 1.0 2.0 0.00 0.63 0.00 91 1009.0
20260506014203 54 322 1.0 2.0 0.00 0.63 0.00 91 1008.9
20260506014104 54 318 1.0 2.0 0.00 0.63 0.00 91 1008.9
20260506014004 54 314 0.0 2.0 0.00 0.63 0.00 92 1009.0
20260506013903 54 307 0.0 2.0 0.00 0.63 0.00 92 1009.0
20260506013804 54 301 0.0 1.0 0.00 0.63 0.00 92 1009.0
20260506013704 54 301 0.0 1.0 0.00 0.63 0.00 92 1009.0
20260506013604 53 301 0.0 1.0 0.00 0.63 0.00 92 1009.0
20260506013504 53 302 0.0 2.0 0.00 0.63 0.00 92 1009.0
20260506013411 53 311 0.0 2.0 0.00 0.63 0.00 91 1009.1
20260506013303 53 317 0.0 2.0 0.00 0.63 0.00 91 1009.0
20260506013004 53 325 0.0 2.0 0.00 0.63 0.00 92 1009.0
20260506012904 53 328 0.0 2.0 0.00 0.63 0.00 92 1009.0
20260506012803 53 333 0.0 2.0 0.00 0.63 0.00 92 1009.0
20260506012704 53 334 0.0 2.0 0.00 0.63 0.00 92 1008.9
20260506012603 53 336 0.0 2.0 0.00 0.63 0.00 92 1009.1
20260506012504 53 346 0.0 2.0 0.00 0.63 0.00 92 1009.0
20260506012404 53 350 0.0 1.0 0.00 0.63 0.00 92 1009.1
20260506012307 53 350 0.0 1.0 0.00 0.63 0.00 92 1009.2
20260506012203 53 350 0.0 1.0 0.00 0.63 0.00 92 1009.0
20260506012104 53 350 0.0 1.0 0.00 0.63 0.00 92 1009.0
20260506011809 53 349 1.0 2.0 0.00 0.63 0.00 92 1009.0
20260506011704 54 349 1.0 2.0 0.00 0.63 0.00 92 1009.1
20260506011604 54 349 1.0 2.0 0.00 0.63 0.00 92 1009.1
20260506011516 54 349 1.0 2.0 0.00 0.63 0.00 92 1009.0
20260506011403 53 349 1.0 2.0 0.00 0.63 0.00 92 1009.2
20260506011304 53 349 1.0 2.0 0.00 0.63 0.00 92 1009.1
20260506011203 53 349 1.0 2.0 0.00 0.63 0.00 92 1009.2
20260506011103 53 349 1.0 2.0 0.00 0.63 0.00 92 1009.1
20260506010803 53 350 0.0 2.0 0.00 0.63 0.00 92 1009.2
20260506010505 53 349 1.0 2.0 0.00 0.63 0.00 92 1009.3
20260506010404 53 347 1.0 3.0 0.00 0.63 0.00 92 1009.3
20260506010204 53 344 1.0 3.0 0.00 0.63 0.00 92 1009.5
20260506010104 53 345 1.0 3.0 0.00 0.63 0.00 92 1009.4
20260506010004 53 345 1.0 3.0 0.00 0.63 0.00 92 1009.4
20260506005904 53 345 1.0 3.0 0.00 0.63 0.00 92 1009.6
20260506005804 53 345 1.0 3.0 0.00 0.63 0.00 92 1009.5
20260506005703 53 345 1.0 3.0 0.00 0.63 0.00 92 1009.5
20260506005504 53 346 1.0 3.0 0.00 0.63 0.00 92 1009.5
20260506005404 53 352 1.0 2.0 0.00 0.63 0.00 91 1009.5
20260506005309 53 353 1.0 2.0 0.00 0.63 0.00 91 1009.4
20260506005204 54 350 1.0 2.0 0.00 0.63 0.00 92 1009.5
20260506005103 53 347 1.0 2.0 0.00 0.63 0.00 92 1009.4
20260506005016 53 346 1.0 2.0 0.00 0.63 0.00 92 1009.5
20260506004804 53 338 1.0 2.0 0.00 0.63 0.00 92 1009.5
20260506004704 53 336 1.0 2.0 0.00 0.63 0.00 91 1009.5
20260506004604 53 331 1.0 2.0 0.00 0.63 0.00 91 1009.6
20260506004504 53 326 1.0 2.0 0.00 0.63 0.00 91 1009.5
20260506004404 53 317 1.0 2.0 0.00 0.63 0.00 91 1009.6
20260506004304 53 315 1.0 2.0 0.00 0.63 0.00 92 1009.6
20260506004103 53 315 1.0 2.0 0.00 0.63 0.00 92 1009.7
20260506004004 53 315 1.0 2.0 0.00 0.63 0.00 91 1009.8
20260506003904 53 316 1.0 3.0 0.00 0.63 0.00 91 1009.8
20260506003803 53 318 2.0 4.0 0.00 0.63 0.00 91 1009.8
20260506003704 53 318 2.0 4.0 0.00 0.63 0.00 91 1009.8
20260506003604 53 317 2.0 4.0 0.00 0.63 0.00 91 1009.8
20260506003504 53 314 2.0 4.0 0.00 0.63 0.00 91 1009.7
20260506003409 53 312 2.0 4.0 0.00 0.63 0.00 92 1009.8
20260506003303 53 315 2.0 4.0 0.00 0.63 0.00 91 1009.8
20260506003204 53 317 2.0 4.0 0.00 0.63 0.00 91 1009.8
20260506003116 53 318 2.0 4.0 0.00 0.63 0.00 91 1009.7
20260506002905 53 321 2.0 4.0 0.00 0.63 0.00 91 1009.7
20260506002804 53 320 2.0 4.0 0.00 0.63 0.00 92 1009.6
20260506002704 53 322 2.0 4.0 0.00 0.63 0.00 92 1009.7
20260506002604 53 325 2.0 4.0 0.00 0.63 0.00 92 1009.6
20260506002504 53 331 1.0 3.0 0.00 0.63 0.00 91 1009.7
20260506002403 53 335 1.0 3.0 0.00 0.63 0.00 91 1009.7
20260506002306 53 335 1.0 3.0 0.00 0.63 0.00 91 1009.7
20260506002204 53 335 1.0 3.0 0.00 0.63 0.00 91 1009.6
20260506002108 53 335 1.0 2.0 0.00 0.63 0.00 91 1009.6
20260506002004 53 335 1.0 2.0 0.00 0.63 0.00 91 1009.6
20260506001904 53 335 1.0 2.0 0.00 0.63 0.00 91 1009.6
20260506001815 53 335 1.0 2.0 0.00 0.63 0.00 91 1009.7
20260506001704 53 336 1.0 3.0 0.00 0.63 0.00 91 1009.7
20260506001603 53 336 1.0 3.0 0.00 0.63 0.00 92 1009.6
20260506001504 53 335 1.0 3.0 0.00 0.63 0.00 91 1009.7
20260506001303 53 335 2.0 3.0 0.00 0.63 0.00 92 1009.8
20260506001205 53 335 2.0 3.0 0.00 0.63 0.00 91 1009.8
20260506001004 53 335 2.0 3.0 0.00 0.63 0.00 91 1009.8
20260506000804 53 335 2.0 3.0 0.00 0.63 0.00 91 1009.7
20260506000703 53 335 1.0 3.0 0.00 0.63 0.00 91 1009.5
20260506000604 53 335 1.0 3.0 0.00 0.63 0.00 91 1009.8
20260506000509 53 335 1.0 3.0 0.00 0.63 0.00 91 1009.8
20260506000403 54 335 1.0 2.0 0.00 0.63 0.00 91 1009.8
20260506000303 53 335 1.0 2.0 0.00 0.63 0.00 91 1009.7
20260506000215 53 336 0.0 2.0 0.00 0.63 0.00 91 1009.7
20260506000004 54 335 0.0 2.0 0.00 0.63 0.00 91 1009.7
20260505235904 54 335 0.0 1.0 0.00 0.63 0.00 91 1009.8
20260505235804 54 335 0.0 1.0 0.00 0.63 0.00 91 1009.8
20260505235704 54 335 0.0 1.0 0.00 0.63 0.00 91 1009.9
20260505235605 54 335 0.0 1.0 0.00 0.63 0.00 91 1009.8
20260505235504 54 336 0.0 1.0 0.00 0.63 0.00 91 1009.9
20260505235404 54 335 0.0 1.0 0.00 0.63 0.00 91 1009.8
20260505235305 54 335 0.0 1.0 0.00 0.63 0.00 91 1009.7
20260505235205 54 335 0.0 2.0 0.00 0.63 0.00 91 1009.8
20260505235103 54 336 0.0 2.0 0.00 0.63 0.00 91 1009.9
20260505235004 54 338 0.0 2.0 0.00 0.63 0.00 91 1009.9
20260505234904 54 340 1.0 2.0 0.00 0.63 0.00 91 1009.9
20260505234803 54 341 1.0 2.0 0.00 0.63 0.00 91 1010.0
20260505234704 54 342 1.0 2.0 0.00 0.63 0.00 91 1010.0
20260505234608 54 341 1.0 2.0 0.00 0.63 0.00 91 1010.0
20260505234504 54 338 1.0 2.0 0.00 0.63 0.00 91 1010.0
20260505234404 54 336 1.0 2.0 0.00 0.63 0.00 91 1010.0
20260505234315 54 334 1.0 2.0 0.00 0.63 0.00 91 1010.1
20260505234204 54 332 1.0 2.0 0.00 0.63 0.00 91 1010.1
20260505234104 54 331 1.0 2.0 0.00 0.63 0.00 91 1010.1
20260505234004 54 329 1.0 2.0 0.00 0.63 0.00 91 1010.1
20260505233904 54 323 0.0 2.0 0.00 0.63 0.00 91 1010.0
20260505233803 54 317 0.0 2.0 0.00 0.63 0.00 91 1010.0
20260505233703 54 309 0.0 2.0 0.00 0.63 0.00 91 1010.1
20260505233603 54 309 0.0 2.0 0.00 0.63 0.00 91 1010.1
20260505233505 54 309 0.0 2.0 0.00 0.63 0.00 91 1010.2
20260505233404 54 309 0.0 2.0 0.00 0.63 0.00 91 1010.1
20260505233304 54 309 0.0 2.0 0.00 0.63 0.00 91 1010.2
20260505233204 53 309 0.0 1.0 0.00 0.63 0.00 91 1010.3
20260505233103 53 309 0.0 1.0 0.00 0.63 0.00 91 1010.3
20260505233004 53 310 0.0 2.0 0.00 0.63 0.00 91 1010.3
20260505232904 53 309 0.0 2.0 0.00 0.63 0.00 91 1010.2
20260505232804 54 310 0.0 2.0 0.00 0.63 0.00 91 1010.3
20260505232709 54 310 0.0 2.0 0.00 0.63 0.00 91 1010.3
20260505232604 54 309 1.0 3.0 0.00 0.63 0.00 91 1010.3
20260505232504 54 306 1.0 3.0 0.00 0.63 0.00 91 1010.2
20260505232416 54 304 1.0 3.0 0.00 0.63 0.00 91 1010.2
20260505232305 54 303 1.0 3.0 0.00 0.63 0.00 91 1010.2
20260505232205 54 303 1.0 3.0 0.00 0.63 0.00 91 1010.1
20260505232104 54 301 1.0 3.0 0.00 0.63 0.00 91 1010.2
20260505231805 54 299 1.0 3.0 0.00 0.63 0.00 91 1010.2
20260505231704 54 297 1.0 3.0 0.00 0.63 0.00 91 1010.2
20260505231504 54 298 0.0 2.0 0.00 0.63 0.00 91 1010.3
20260505231403 54 304 0.0 2.0 0.00 0.63 0.00 91 1010.4
20260505231305 54 310 0.0 2.0 0.00 0.63 0.00 91 1010.4
20260505231204 54 322 0.0 2.0 0.00 0.63 0.00 91 1010.4
20260505231004 54 345 1.0 3.0 0.00 0.63 0.00 91 1010.5
20260505230904 54 347 1.0 3.0 0.00 0.63 0.00 91 1010.5
20260505230815 54 349 1.0 4.0 0.00 0.63 0.00 91 1010.6
20260505230704 54 347 1.0 4.0 0.00 0.63 0.00 91 1010.5
20260505230604 53 344 2.0 4.0 0.00 0.63 0.00 91 1010.5
20260505230504 53 343 2.0 4.0 0.00 0.63 0.00 91 1010.5
20260505230404 53 342 2.0 4.0 0.00 0.63 0.00 91 1010.4
20260505230304 53 342 2.0 4.0 0.00 0.63 0.00 91 1010.4
20260505230204 53 340 2.0 4.0 0.00 0.63 0.00 91 1010.4
20260505230104 53 340 2.0 4.0 0.00 0.63 0.00 91 1010.4
20260505230004 53 338 2.0 4.0 0.00 0.63 0.00 91 1010.4
20260505225903 53 336 2.0 4.0 0.00 0.63 0.00 91 1010.4
20260505225604 54 330 2.0 4.0 0.00 0.63 0.00 91 1010.4
20260505225515 54 327 2.0 4.0 0.00 0.63 0.00 91 1010.5
20260505225404 54 325 2.0 4.0 0.00 0.63 0.00 91 1010.5
20260505225306 54 323 2.0 3.0 0.00 0.63 0.00 91 1010.6
20260505225204 54 320 1.0 3.0 0.00 0.63 0.00 91 1010.6
20260505225105 54 319 1.0 3.0 0.00 0.63 0.00 91 1010.7
20260505225004 54 319 1.0 2.0 0.00 0.63 0.00 91 1010.7
20260505224904 54 319 1.0 2.0 0.00 0.63 0.00 91 1010.7
20260505224803 54 319 1.0 2.0 0.00 0.63 0.00 91 1010.7
20260505224703 54 319 1.0 2.0 0.00 0.63 0.00 91 1010.7
20260505224603 54 319 1.0 2.0 0.00 0.63 0.00 91 1010.6
20260505224403 54 319 1.0 2.0 0.00 0.63 0.00 91 1010.7
20260505224305 54 319 1.0 2.0 0.00 0.63 0.00 91 1010.6
20260505224209 54 320 1.0 2.0 0.00 0.63 0.00 91 1010.6
20260505224004 54 321 1.0 2.0 0.00 0.63 0.00 91 1010.5
20260505223916 54 322 1.0 2.0 0.00 0.63 0.00 91 1010.6
20260505223803 54 322 1.0 2.0 0.00 0.63 0.00 91 1010.6
20260505223604 54 323 1.0 2.0 0.00 0.63 0.00 91 1010.6
20260505223504 54 323 1.0 2.0 0.00 0.63 0.00 91 1010.6
20260505223405 54 323 1.0 2.0 0.00 0.63 0.00 91 1010.7
20260505223305 54 323 1.0 2.0 0.00 0.63 0.00 91 1010.6
20260505223204 54 323 0.0 2.0 0.01 0.63 0.00 91 1010.7
20260505223104 54 323 0.0 2.0 0.01 0.63 0.00 91 1010.7
20260505223004 54 323 0.0 2.0 0.01 0.63 0.00 91 1010.7
20260505222909 54 323 0.0 2.0 0.01 0.63 0.00 91 1010.7
20260505222703 54 323 0.0 1.0 0.01 0.63 0.00 91 1010.7
20260505222615 54 323 0.0 1.0 0.01 0.63 0.00 91 1010.8
20260505222504 54 323 0.0 1.0 0.01 0.63 0.00 91 1010.6
20260505222404 53 323 0.0 1.0 0.01 0.63 0.00 91 1010.7
20260505222306 53 323 0.0 1.0 0.01 0.63 0.00 91 1010.6
20260505222204 53 323 0.0 1.0 0.01 0.63 0.00 91 1010.5
20260505222103 53 323 0.0 1.0 0.01 0.63 0.00 91 1010.6
20260505222003 53 323 0.0 1.0 0.01 0.63 0.00 91 1010.4
20260505221904 53 323 0.0 2.0 0.01 0.63 0.00 91 1010.5
20260505221803 53 323 1.0 2.0 0.01 0.63 0.00 91 1010.5
20260505221704 53 323 1.0 2.0 0.01 0.63 0.00 91 1010.5
20260505221607 53 324 1.0 2.0 0.01 0.63 0.00 91 1010.5
20260505221504 53 324 1.0 2.0 0.01 0.63 0.00 91 1010.5
20260505221404 53 324 1.0 2.0 0.01 0.63 0.00 91 1010.5
20260505221314 54 324 1.0 2.0 0.01 0.63 0.00 91 1010.4
20260505221204 54 324 1.0 2.0 0.01 0.63 0.00 91 1010.5
20260505221104 54 323 1.0 2.0 0.01 0.63 0.00 91 1010.5
20260505221004 54 320 1.0 2.0 0.01 0.63 0.00 91 1010.6
20260505220703 54 311 1.0 2.0 0.01 0.63 0.00 91 1010.7
20260505220604 54 309 1.0 2.0 0.01 0.63 0.00 91 1010.6
20260505220504 54 306 1.0 2.0 0.01 0.63 0.00 91 1010.7
20260505220404 54 304 1.0 2.0 0.01 0.63 0.00 91 1010.7
20260505220104 54 289 1.0 2.0 0.01 0.63 0.00 91 1010.7
20260505220006 54 287 1.0 2.0 0.01 0.63 0.00 91 1010.7
20260505215904 54 285 0.0 2.0 0.01 0.63 0.63 91 1010.7
20260505215804 54 285 0.0 2.0 0.01 0.63 0.63 91 1010.8
20260505215704 54 285 0.0 2.0 0.01 0.63 0.63 91 1010.8
20260505215604 54 285 0.0 2.0 0.01 0.63 0.63 91 1010.8
20260505215504 54 285 0.0 2.0 0.01 0.63 0.63 91 1010.8
20260505215410 54 285 0.0 2.0 0.01 0.63 0.63 91 1010.9
20260505215305 54 285 0.0 2.0 0.01 0.63 0.63 91 1010.8
20260505215204 54 286 0.0 1.0 0.01 0.63 0.63 91 1010.9
20260505215116 54 285 0.0 1.0 0.01 0.63 0.63 91 1010.9
20260505215004 54 285 0.0 1.0 0.01 0.63 0.63 91 1010.9
20260505214904 54 286 0.0 1.0 0.01 0.63 0.63 91 1011.0
20260505214803 54 285 0.0 1.0 0.01 0.63 0.63 91 1010.9
20260505214704 54 285 0.0 1.0 0.01 0.63 0.63 91 1011.0
20260505214603 54 298 0.0 2.0 0.01 0.63 0.63 91 1010.9
20260505214504 54 302 0.0 2.0 0.01 0.63 0.63 91 1010.9
20260505214403 54 305 0.0 2.0 0.01 0.63 0.63 91 1011.0
20260505214304 54 310 1.0 2.0 0.01 0.63 0.63 91 1010.9
20260505214204 54 312 1.0 2.0 0.01 0.63 0.63 91 1010.9
20260505214105 54 314 0.0 2.0 0.01 0.63 0.63 91 1010.9
20260505214004 54 320 1.0 2.0 0.01 0.63 0.63 91 1010.9
20260505213904 54 325 1.0 2.0 0.01 0.63 0.63 91 1011.0
20260505213804 54 332 1.0 2.0 0.01 0.63 0.63 91 1011.0
20260505213704 54 337 1.0 2.0 0.01 0.63 0.63 91 1011.0
20260505213603 54 340 1.0 2.0 0.01 0.63 0.63 91 1011.0
20260505213506 54 340 1.0 3.0 0.01 0.63 0.63 91 1011.0
20260505213304 54 339 1.0 3.0 0.00 0.62 0.62 91 1011.0
20260505213211 54 337 1.0 3.0 0.00 0.62 0.62 91 1010.9
20260505213104 54 336 1.0 3.0 0.00 0.62 0.62 91 1011.1
20260505213004 53 334 1.0 3.0 0.00 0.62 0.62 91 1011.0
20260505212916 53 332 1.0 3.0 0.00 0.62 0.62 91 1011.1
20260505212804 53 331 1.0 3.0 0.00 0.62 0.62 91 1011.0
20260505212704 54 330 1.0 3.0 0.00 0.62 0.62 91 1011.0
20260505212603 54 328 1.0 3.0 0.00 0.62 0.62 91 1011.1
20260505212504 54 324 1.0 3.0 0.00 0.62 0.62 91 1011.1
20260505212403 54 321 1.0 3.0 0.00 0.62 0.62 91 1011.1
20260505212305 54 319 1.0 2.0 0.00 0.62 0.62 91 1011.0
20260505212204 54 319 1.0 2.0 0.00 0.62 0.62 91 1011.1
20260505212104 53 319 1.0 2.0 0.00 0.62 0.62 91 1011.2
20260505212004 54 319 1.0 2.0 0.01 0.62 0.62 91 1011.1
20260505211904 54 319 1.0 2.0 0.01 0.62 0.62 91 1011.1
20260505211804 53 319 1.0 2.0 0.01 0.62 0.62 91 1011.1
20260505211703 53 319 1.0 2.0 0.01 0.62 0.62 91 1011.1
20260505211604 54 319 1.0 2.0 0.01 0.62 0.62 91 1011.1
20260505211404 54 321 1.0 3.0 0.01 0.62 0.62 91 1011.2
20260505211305 54 323 1.0 3.0 0.02 0.62 0.62 91 1011.2
20260505211204 54 324 1.0 3.0 0.02 0.62 0.62 91 1011.2
20260505211104 54 324 1.0 3.0 0.02 0.62 0.62 91 1011.2
20260505211004 53 325 1.0 3.0 0.02 0.62 0.62 91 1011.2
20260505210904 53 326 1.0 3.0 0.02 0.62 0.62 91 1011.3
20260505210804 53 327 1.0 3.0 0.02 0.62 0.62 91 1011.4
20260505210704 53 328 1.0 3.0 0.02 0.62 0.62 91 1011.4
20260505210603 53 330 1.0 3.0 0.02 0.62 0.62 91 1011.3
20260505210504 53 333 1.0 2.0 0.02 0.62 0.62 91 1011.2
20260505210304 54 333 0.0 2.0 0.02 0.62 0.62 91 1011.2
20260505210004 54 334 0.0 1.0 0.02 0.62 0.62 91 1011.2
20260505205906 54 334 0.0 1.0 0.02 0.62 0.62 91 1011.2
20260505205604 53 333 0.0 1.0 0.02 0.62 0.62 91 1011.2
20260505205504 53 333 0.0 1.0 0.02 0.62 0.62 91 1011.3
20260505205404 53 333 0.0 1.0 0.02 0.62 0.62 91 1011.4
20260505205305 53 333 0.0 1.0 0.02 0.62 0.62 91 1011.3
20260505205204 53 333 0.0 1.0 0.02 0.62 0.62 91 1011.4
20260505205103 53 333 0.0 2.0 0.02 0.62 0.62 91 1011.4
20260505205004 53 333 0.0 2.0 0.02 0.62 0.62 91 1011.4
20260505204903 53 333 0.0 2.0 0.02 0.62 0.62 91 1011.3
20260505204804 53 333 1.0 2.0 0.02 0.62 0.62 91 1011.3
20260505204604 53 333 1.0 2.0 0.03 0.62 0.62 91 1011.2
20260505204304 53 336 1.0 2.0 0.03 0.62 0.62 91 1011.4
20260505204204 53 336 1.0 2.0 0.03 0.62 0.62 91 1011.4
20260505204104 53 337 1.0 2.0 0.03 0.62 0.62 91 1011.5
20260505204005 53 338 1.0 2.0 0.03 0.62 0.62 91 1011.4
20260505203804 53 339 1.0 2.0 0.03 0.62 0.62 91 1011.4
20260505203704 53 339 1.0 2.0 0.03 0.62 0.62 91 1011.3
20260505203604 53 337 1.0 2.0 0.04 0.62 0.62 91 1011.4
20260505203505 53 335 1.0 2.0 0.04 0.62 0.62 91 1011.3
20260505203404 53 331 1.0 2.0 0.04 0.62 0.62 91 1011.5
20260505203204 54 325 1.0 2.0 0.04 0.62 0.62 91 1011.4
20260505203104 54 319 1.0 2.0 0.04 0.62 0.62 91 1011.4
20260505203004 54 314 1.0 2.0 0.04 0.62 0.62 91 1011.4
20260505202903 54 309 1.0 2.0 0.04 0.62 0.62 91 1011.5
20260505202803 54 302 1.0 2.0 0.04 0.62 0.62 91 1011.4
20260505202704 54 292 1.0 2.0 0.04 0.62 0.62 91 1011.5
20260505202604 54 285 1.0 2.0 0.04 0.62 0.62 91 1011.5
20260505202504 54 285 1.0 2.0 0.04 0.62 0.62 91 1011.4
20260505202404 54 285 1.0 2.0 0.04 0.62 0.62 91 1011.5
20260505202306 54 285 1.0 2.0 0.04 0.62 0.62 91 1011.5
20260505202204 54 285 1.0 2.0 0.04 0.62 0.62 91 1011.4
20260505202004 54 284 1.0 2.0 0.03 0.61 0.61 91 1011.5
20260505201903 54 284 0.0 2.0 0.03 0.61 0.61 91 1011.5
20260505201804 54 283 0.0 2.0 0.03 0.61 0.61 91 1011.5
20260505201704 54 281 0.0 2.0 0.03 0.61 0.61 91 1011.6
20260505201504 54 278 0.0 1.0 0.03 0.61 0.61 91 1011.5
20260505201204 54 275 0.0 1.0 0.02 0.61 0.61 91 1011.6
20260505201104 54 275 0.0 2.0 0.02 0.61 0.61 91 1011.5
20260505201005 54 275 0.0 2.0 0.02 0.61 0.61 91 1011.6
20260505200804 53 284 0.0 2.0 0.02 0.61 0.61 90 1011.5
20260505200704 54 285 0.0 2.0 0.03 0.61 0.61 90 1011.5
20260505200604 54 288 0.0 2.0 0.03 0.61 0.61 90 1011.6
20260505200504 54 289 0.0 2.0 0.03 0.61 0.61 90 1011.5
20260505200404 54 294 0.0 2.0 0.03 0.61 0.61 90 1011.5
20260505200304 54 303 0.0 2.0 0.03 0.61 0.61 91 1011.5
20260505200204 54 317 0.0 2.0 0.03 0.61 0.61 91 1011.5
20260505200105 54 346 0.0 2.0 0.03 0.61 0.61 90 1011.4
20260505200004 54 359 0.0 2.0 0.03 0.61 0.61 90 1011.4
20260505195904 54 1 0.0 1.0 0.03 0.61 0.61 91 1011.5
20260505195803 54 2 0.0 2.0 0.03 0.61 0.61 91 1011.4
20260505195704 54 2 0.0 2.0 0.03 0.61 0.61 91 1011.3
20260505195604 54 1 1.0 2.0 0.03 0.61 0.61 91 1011.4
20260505195504 54 1 1.0 2.0 0.02 0.60 0.60 90 1011.4
20260505195404 54 1 1.0 2.0 0.02 0.60 0.60 90 1011.4
20260505195305 54 1 1.0 2.0 0.02 0.60 0.60 90 1011.3
20260505195104 53 1 1.0 2.0 0.02 0.60 0.60 90 1011.5
20260505195008 53 2 0.0 2.0 0.02 0.60 0.60 90 1011.4
20260505194903 53 1 0.0 2.0 0.02 0.60 0.60 90 1011.4
20260505194805 53 1 0.0 2.0 0.02 0.59 0.59 90 1011.3
20260505194715 54 1 0.0 2.0 0.02 0.59 0.59 90 1011.3
20260505194604 54 1 0.0 1.0 0.02 0.59 0.59 90 1011.2
20260505194505 54 1 0.0 1.0 0.02 0.59 0.59 90 1011.2
20260505194403 54 1 0.0 1.0 0.02 0.59 0.59 90 1011.2
20260505194304 54 1 0.0 1.0 0.02 0.59 0.59 90 1011.3
20260505194203 54 1 0.0 1.0 0.02 0.59 0.59 90 1011.3
20260505194104 54 1 0.0 1.0 0.02 0.59 0.59 90 1011.3
20260505194004 54 1 0.0 1.0 0.02 0.59 0.59 90 1011.1
20260505193904 54 1 0.0 1.0 0.02 0.59 0.59 90 1011.2
20260505193805 54 1 0.0 1.0 0.02 0.59 0.59 90 1011.3
20260505193703 54 1 0.0 1.0 0.02 0.59 0.59 90 1011.2
20260505193604 54 1 0.0 1.0 0.01 0.58 0.58 90 1011.4
20260505193504 54 1 0.0 1.0 0.01 0.58 0.58 90 1011.3
20260505193403 54 1 0.0 1.0 0.01 0.58 0.58 90 1011.3
20260505193304 54 1 0.0 1.0 0.01 0.58 0.58 90 1011.3
20260505193204 54 1 0.0 1.0 0.01 0.58 0.58 90 1011.2
20260505193109 54 1 0.0 1.0 0.01 0.58 0.58 90 1011.2
20260505193004 54 1 0.0 1.0 0.01 0.58 0.58 90 1011.2
20260505192904 54 1 0.0 1.0 0.01 0.58 0.58 90 1011.1
20260505192815 54 1 0.0 1.0 0.01 0.58 0.58 90 1011.2
20260505192704 54 1 0.0 1.0 0.01 0.58 0.58 90 1011.2
20260505192603 54 1 0.0 1.0 0.01 0.58 0.58 90 1011.2
20260505192504 54 1 0.0 1.0 0.01 0.58 0.58 90 1011.2
20260505192404 54 8 0.0 1.0 0.01 0.58 0.58 90 1011.2
20260505192204 54 10 0.0 1.0 0.01 0.58 0.58 90 1011.3
20260505192104 54 11 0.0 1.0 0.01 0.58 0.58 90 1011.1
20260505192004 54 11 0.0 1.0 0.01 0.58 0.58 90 1011.1
20260505191904 54 15 0.0 1.0 0.01 0.58 0.58 90 1011.2
20260505191805 54 17 0.0 1.0 0.01 0.58 0.58 90 1011.2
20260505191705 54 19 0.0 1.0 0.01 0.58 0.58 90 1011.2
20260505191513 54 27 0.0 1.0 0.01 0.58 0.58 90 1011.2
20260505191404 54 30 0.0 1.0 0.01 0.58 0.58 89 1011.2
20260505191304 54 30 0.0 1.0 0.01 0.58 0.58 89 1011.1
20260505191005 54 30 0.0 1.0 0.01 0.58 0.58 90 1011.1
20260505190904 54 30 0.0 1.0 0.01 0.58 0.58 90 1011.0
20260505190804 54 30 0.0 1.0 0.00 0.57 0.57 90 1011.1
20260505190705 54 30 0.0 1.0 0.00 0.57 0.57 89 1011.1
20260505190604 54 30 0.0 1.0 0.00 0.57 0.57 89 1011.1
20260505190403 54 30 0.0 1.0 0.00 0.57 0.57 89 1011.1
20260505190305 54 30 0.0 1.0 0.00 0.57 0.57 89 1011.1
20260505190209 54 31 0.0 1.0 0.00 0.57 0.57 89 1011.0
20260505190105 54 25 0.0 1.0 0.00 0.57 0.57 89 1011.0
20260505190004 54 25 0.0 1.0 0.00 0.57 0.57 89 1011.1
20260505185704 54 19 0.0 1.0 0.00 0.57 0.57 90 1011.0
20260505185603 54 17 0.0 1.0 0.00 0.57 0.57 90 1011.1
20260505185504 54 16 0.0 1.0 0.00 0.57 0.57 89 1011.0
20260505185404 54 13 0.0 1.0 0.00 0.57 0.57 89 1011.0
20260505185305 54 11 0.0 1.0 0.00 0.57 0.57 89 1010.9
20260505185104 54 1 0.0 1.0 0.00 0.57 0.57 89 1010.9
20260505185004 54 1 0.0 1.0 0.01 0.57 0.57 89 1010.9
20260505184904 54 1 0.0 1.0 0.01 0.57 0.57 89 1010.9
20260505184804 54 1 0.0 1.0 0.01 0.57 0.57 89 1010.9
20260505184704 54 1 0.0 1.0 0.01 0.57 0.57 89 1010.9
20260505184605 54 1 0.0 1.0 0.01 0.57 0.57 89 1010.9
20260505184504 54 1 0.0 1.0 0.01 0.57 0.57 89 1011.0
20260505184304 54 7 0.0 2.0 0.01 0.57 0.57 89 1010.9
20260505184204 54 9 0.0 2.0 0.01 0.57 0.57 89 1011.0
20260505184003 54 11 0.0 2.0 0.01 0.57 0.57 89 1010.9
20260505183904 54 11 0.0 2.0 0.01 0.57 0.57 89 1011.0
20260505183803 54 11 0.0 2.0 0.01 0.57 0.57 89 1010.9
20260505183708 54 11 0.0 2.0 0.01 0.57 0.57 89 1011.0
20260505183604 54 10 0.0 2.0 0.01 0.57 0.57 89 1010.9
20260505183504 54 5 0.0 2.0 0.01 0.57 0.57 89 1010.9
20260505183415 54 3 0.0 2.0 0.01 0.57 0.57 89 1010.9
20260505183304 54 1 0.0 2.0 0.01 0.57 0.57 89 1011.0
20260505183104 54 355 0.0 2.0 0.01 0.57 0.57 90 1011.0
20260505183004 54 354 0.0 2.0 0.01 0.57 0.57 89 1010.9
20260505182904 54 351 0.0 2.0 0.01 0.57 0.57 89 1010.9
20260505182804 54 351 0.0 2.0 0.01 0.57 0.57 89 1010.9
20260505182704 54 350 0.0 2.0 0.01 0.57 0.57 89 1011.0
20260505182604 54 350 0.0 2.0 0.01 0.57 0.57 89 1010.9
20260505182504 54 350 0.0 2.0 0.01 0.57 0.57 90 1010.9
20260505182410 54 350 0.0 1.0 0.01 0.57 0.57 89 1011.0
20260505182306 54 350 0.0 1.0 0.01 0.57 0.57 89 1011.0
20260505182203 54 350 0.0 1.0 0.01 0.57 0.57 89 1011.0
20260505182115 54 350 0.0 1.0 0.01 0.57 0.57 90 1010.9
20260505181904 54 350 0.0 1.0 0.01 0.57 0.57 89 1011.0
20260505181804 54 350 0.0 1.0 0.01 0.57 0.57 89 1011.0
20260505181704 54 350 0.0 1.0 0.01 0.57 0.57 90 1010.9
20260505181604 54 350 0.0 1.0 0.01 0.57 0.57 90 1010.9
20260505181505 54 350 0.0 1.0 0.01 0.57 0.57 89 1010.9
20260505181403 54 350 0.0 1.0 0.01 0.57 0.57 89 1010.9
20260505181304 54 350 0.0 1.0 0.01 0.57 0.57 89 1010.9
20260505181103 54 350 0.0 1.0 0.01 0.57 0.57 90 1010.9
20260505181005 54 350 0.0 2.0 0.01 0.57 0.57 89 1011.0
20260505180903 54 350 0.0 2.0 0.01 0.57 0.57 89 1011.0
20260505180809 54 350 0.0 2.0 0.01 0.57 0.57 90 1010.9
20260505180604 54 350 0.0 2.0 0.01 0.57 0.57 89 1010.9
20260505180404 54 349 0.0 2.0 0.01 0.57 0.57 89 1010.9
20260505180203 54 349 1.0 2.0 0.01 0.57 0.57 89 1010.9
20260505180104 54 349 1.0 2.0 0.01 0.57 0.57 89 1010.8
20260505180004 54 349 0.0 2.0 0.01 0.57 0.57 89 1011.0
20260505175803 54 350 1.0 2.0 0.01 0.57 0.57 89 1011.0
20260505175704 54 350 1.0 2.0 0.01 0.57 0.57 89 1010.9
20260505175604 54 351 1.0 2.0 0.01 0.57 0.57 89 1011.0
20260505175510 54 352 1.0 2.0 0.01 0.57 0.57 89 1010.9
20260505175404 54 352 0.0 2.0 0.01 0.57 0.57 89 1010.9
20260505175305 54 353 0.0 2.0 0.01 0.57 0.57 89 1010.9